CW3224 Weather Reports


time (UTC)temp
F
wind
direction
speed
knots
gust
knots
rain 1hr
in
rain 24hr
in
rain mn
in
humidity
%
barometer
mb
20260831230453 73 252 0.0 0.0 0.00 0.00 0.00 70 1017.6
20260831225452 73 252 0.0 0.0 0.00 0.00 0.00 69 1017.7
20260831224931 73 252 0.0 0.0 0.00 0.00 0.00 67 1017.7
20260831223450 74 252 0.0 0.0 0.00 0.00 0.00 66 1017.7
20260831223420 74 173 0.0 0.0 0.00 0.00 0.00 66 1017.7
20260831221438 74 206 0.0 2.6 0.00 0.00 0.00 65 1017.6
20260831220917 74 156 0.0 3.5 0.00 0.00 0.00 65 1017.6
20260831215439 75 177 0.0 4.3 0.00 0.00 0.00 65 1017.5
20260831214439 75 200 0.0 3.5 0.00 0.00 0.00 65 1017.6
20260831213438 75 170 0.0 4.3 0.00 0.00 0.00 65 1017.6
20260831212917 75 205 0.0 3.5 0.00 0.00 0.00 64 1017.7
20260831211428 75 110 0.0 0.9 0.00 0.00 0.00 64 1017.7
20260831210427 75 145 0.0 2.6 0.00 0.00 0.00 64 1017.7
20260831205428 76 192 0.9 4.3 0.00 0.00 0.00 64 1017.8
20260831204427 76 133 0.0 4.3 0.00 0.00 0.00 62 1017.9
20260831203428 76 203 0.0 4.3 0.00 0.00 0.00 62 1017.9
20260831202426 76 194 0.0 3.5 0.00 0.00 0.00 61 1017.8
20260831201423 76 178 0.0 4.3 0.00 0.00 0.00 59 1017.8
20260831200859 77 136 0.0 5.2 0.00 0.00 0.00 60 1017.8
20260831195423 77 163 0.9 4.3 0.00 0.00 0.00 57 1018.1
20260831194423 77 178 0.9 5.2 0.00 0.00 0.00 58 1018.2
20260831193423 76 175 0.9 4.3 0.00 0.00 0.00 56 1018.2
20260831192424 76 224 0.0 3.5 0.00 0.00 0.00 56 1018.2
20260831191422 76 218 0.0 2.6 0.00 0.00 0.00 60 1018.5
20260831190414 77 177 0.0 5.2 0.00 0.00 0.00 57 1018.5
20260831185413 77 7 0.0 0.9 0.00 0.00 0.00 57 1018.4
20260831184411 78 196 0.0 2.6 0.00 0.00 0.00 57 1018.6
20260831183902 78 184 0.9 7.0 0.00 0.00 0.00 54 1018.6
20260831182412 79 200 0.0 0.0 0.00 0.00 0.00 55 1018.8
20260831181411 79 200 0.0 0.9 0.00 0.00 0.00 51 1018.8
20260831180409 80 225 0.0 0.0 0.00 0.00 0.00 54 1018.8
20260831175409 80 187 0.0 2.6 0.00 0.00 0.00 51 1018.7
20260831174409 79 127 0.0 0.0 0.00 0.00 0.00 51 1019.1
20260831173410 79 100 0.0 0.0 0.00 0.00 0.00 51 1019.1
20260831172412 78 79 0.0 0.0 0.00 0.00 0.00 53 1019.3
20260831171410 77 183 0.0 0.0 0.00 0.00 0.00 50 1019.4
20260831170403 77 161 0.0 2.6 0.00 0.00 0.00 52 1019.4
20260831165401 77 6 0.0 0.0 0.00 0.00 0.00 54 1019.6
20260831164401 76 166 0.0 0.0 0.00 0.00 0.00 57 1019.7
20260831163401 76 166 0.0 0.0 0.00 0.00 0.00 58 1019.7
20260831162359 76 169 0.0 2.6 0.00 0.00 0.00 53 1019.8
20260831161844 76 163 0.9 3.5 0.00 0.00 0.00 57 1019.9
20260831160832 76 151 0.9 5.2 0.00 0.00 0.00 55 1019.9
20260831155359 76 177 0.9 3.5 0.00 0.00 0.00 57 1020.1
20260831154400 76 173 0.0 0.0 0.00 0.00 0.00 58 1020.1
20260831153359 76 129 0.0 0.0 0.00 0.00 0.00 59 1020.1
20260831152402 75 62 0.0 0.9 0.00 0.00 0.00 59 1020.2
20260831151357 75 111 0.0 0.0 0.00 0.00 0.00 61 1020.3
20260831150839 74 85 0.0 0.0 0.00 0.00 0.00 62 1020.3
20260831145357 74 102 0.0 0.0 0.00 0.00 0.00 62 1020.3
20260831144356 73 64 0.9 1.7 0.00 0.00 0.00 66 1020.3
20260831143845 72 135 0.0 2.6 0.00 0.00 0.00 62 1020.3
20260831143313 71 143 0.0 0.0 0.00 0.00 0.00 64 1020.5
20260831141828 70 156 0.0 0.0 0.00 0.00 0.00 67 1020.3
20260831140352 69 158 0.0 0.0 0.00 0.00 0.00 69 1020.3
20260831135350 67 158 0.0 0.0 0.00 0.00 0.00 69 1020.3
20260831134351 66 157 0.0 0.0 0.00 0.00 0.00 72 1020.3
20260831133350 65 158 0.0 0.0 0.00 0.00 0.00 71 1020.3
20260831132352 65 156 0.0 0.0 0.00 0.00 0.00 74 1020.3
20260831131342 64 155 0.0 0.0 0.00 0.00 0.00 78 1020.2
20260831130340 62 165 0.0 0.0 0.00 0.00 0.00 84 1020.2
20260831125341 61 165 0.0 0.0 0.00 0.00 0.00 88 1020.2
20260831124341 60 165 0.0 0.0 0.00 0.00 0.00 91 1020.2
20260831123818 59 165 0.0 0.0 0.00 0.00 0.00 92 1020.2
20260831122339 59 165 0.0 0.0 0.00 0.00 0.00 92 1020.1
20260831121823 58 165 0.0 0.0 0.00 0.00 0.00 92 1019.8
20260831120338 58 164 0.0 0.0 0.00 0.00 0.00 92 1019.8
20260831115337 57 301 0.0 0.0 0.00 0.00 0.00 92 1019.8
20260831114336 57 301 0.0 0.0 0.00 0.00 0.00 91 1019.8
20260831113336 56 301 0.0 0.0 0.00 0.00 0.00 91 1019.8
20260831112818 56 301 0.0 0.0 0.00 0.00 0.00 90 1019.7
20260831111331 56 164 0.0 0.0 0.00 0.00 0.00 90 1019.5
20260831110332 56 165 0.0 0.0 0.00 0.00 0.00 90 1019.5
20260831105814 56 164 0.0 0.0 0.00 0.00 0.00 90 1019.4
20260831104314 57 165 0.0 0.0 0.00 0.00 0.00 89 1019.2
20260831103314 57 165 0.0 0.0 0.00 0.00 0.00 89 1019.2
20260831102802 57 165 0.0 0.0 0.00 0.00 0.00 89 1019.2
20260831101752 57 165 0.0 0.0 0.00 0.00 0.00 89 1019.1
20260831100314 58 165 0.0 0.0 0.00 0.00 0.00 89 1019.1
20260831095259 58 165 0.0 0.0 0.00 0.00 0.00 89 1018.8
20260831094258 58 165 0.0 0.0 0.00 0.00 0.00 89 1018.7
20260831093256 58 165 0.0 0.0 0.00 0.00 0.00 89 1018.7
20260831092254 59 165 0.0 0.0 0.00 0.00 0.00 89 1018.6
20260831091254 59 165 0.0 0.0 0.00 0.00 0.00 89 1018.3
20260831090255 59 165 0.0 0.0 0.00 0.00 0.00 89 1018.3
20260831085254 60 165 0.0 0.0 0.00 0.00 0.00 88 1018.2
20260831084736 60 165 0.0 0.0 0.00 0.00 0.00 88 1018.2
20260831083254 60 164 0.0 0.0 0.00 0.00 0.00 88 1018.2
20260831082255 60 165 0.0 0.0 0.00 0.00 0.00 88 1017.9
20260831081254 61 165 0.0 0.0 0.00 0.00 0.00 87 1017.8
20260831080254 61 165 0.0 0.0 0.00 0.00 0.00 87 1017.8
20260831075735 62 165 0.0 0.0 0.00 0.00 0.00 86 1017.7
20260831074254 62 165 0.0 0.0 0.00 0.00 0.00 86 1017.6
20260831074224 62 164 0.0 0.0 0.00 0.00 0.00 86 1017.6
20260831072253 62 164 0.0 0.0 0.00 0.00 0.00 86 1017.6
20260831071253 63 164 0.0 0.0 0.00 0.00 0.00 86 1017.6
20260831070252 63 164 0.0 0.0 0.00 0.00 0.00 85 1017.6
20260831065252 64 164 0.0 0.0 0.00 0.00 0.00 85 1017.6
20260831064252 64 301 0.0 0.0 0.00 0.00 0.00 85 1017.6
20260831063250 64 165 0.0 0.0 0.00 0.00 0.00 84 1017.6
20260831062250 64 165 0.0 0.0 0.00 0.00 0.00 84 1017.6
20260831061250 65 165 0.0 0.0 0.00 0.00 0.00 84 1017.2
20260831060249 65 165 0.0 0.0 0.00 0.00 0.00 84 1017.2
20260831055249 65 165 0.0 0.0 0.00 0.00 0.00 83 1017.2
20260831054239 65 165 0.0 0.0 0.00 0.00 0.00 83 1017.0
20260831053239 66 165 0.0 0.0 0.00 0.00 0.00 83 1017.0
20260831053207 66 165 0.0 0.0 0.00 0.00 0.00 83 1017.0
20260831051239 67 165 0.0 0.0 0.00 0.00 0.00 82 1016.9
20260831050237 67 165 0.0 0.0 0.00 0.00 0.00 82 1016.9
20260831045238 67 165 0.0 0.0 0.00 0.00 0.00 81 1016.7
20260831044713 68 165 0.0 0.0 0.00 0.00 0.00 81 1016.5
20260831043720 68 165 0.0 0.0 0.00 0.00 0.00 80 1016.5
20260831042716 68 165 0.0 0.0 0.00 0.00 0.00 80 1016.5
20260831041715 69 165 0.0 0.0 0.00 0.00 0.00 80 1016.5
20260831040237 69 165 0.0 0.0 0.00 0.00 0.00 80 1016.5
20260831035236 69 165 0.0 0.0 0.00 0.00 0.00 80 1016.4
20260831034225 70 165 0.0 0.0 0.00 0.00 0.00 80 1016.4
20260831033225 70 165 0.0 0.0 0.00 0.00 0.00 80 1016.4
20260831032709 70 165 0.0 0.0 0.00 0.00 0.00 80 1016.5
20260831031707 70 165 0.0 0.0 0.00 0.00 0.00 80 1016.4
20260831030224 70 165 0.0 0.0 0.00 0.00 0.00 81 1016.4
20260831025220 70 165 0.0 0.0 0.00 0.00 0.00 81 1016.1
20260831024222 71 146 0.0 0.0 0.00 0.00 0.00 81 1016.5
20260831023221 71 141 0.0 1.7 0.00 0.00 0.00 81 1016.5
20260831022221 71 141 0.0 0.9 0.00 0.00 0.00 82 1016.4
20260831021701 71 141 0.0 0.9 0.00 0.00 0.00 81 1016.4
20260831020222 71 135 0.0 0.0 0.00 0.00 0.00 81 1016.4
20260831015216 71 135 0.0 0.0 0.00 0.00 0.00 81 1016.0
20260831014215 71 135 0.0 0.0 0.00 0.00 0.00 81 1016.0
20260831013216 71 127 0.0 1.7 0.00 0.00 0.00 80 1016.0
20260831012213 72 180 0.0 0.9 0.00 0.00 0.00 80 1015.9
20260831011214 72 180 0.0 3.5 0.00 0.00 0.00 79 1015.7
20260831010211 72 154 0.0 0.0 0.00 0.00 0.00 79 1015.7
20260831005211 72 137 0.0 0.0 0.00 0.00 0.00 79 1015.6
20260831004211 72 224 0.0 0.0 0.00 0.00 0.00 79 1015.5
20260831003211 72 224 0.0 2.6 0.00 0.00 0.00 78 1015.5
20260831002212 72 185 0.0 0.0 0.00 0.00 0.00 78 1015.4
20260831001209 72 191 0.0 0.0 0.00 0.00 0.00 77 1015.1
20260831000653 72 180 0.0 1.7 0.00 0.00 0.00 76 1015.1
20260830235208 72 191 0.0 2.6 0.00 0.00 0.00 76 1015.0
20260830234208 73 193 0.0 0.0 0.00 0.00 0.00 75 1014.9
20260830233211 73 192 0.0 0.0 0.00 0.00 0.00 74 1014.9
20260830232207 73 200 0.0 0.0 0.00 0.00 0.00 74 1014.9